Location: Red Deer
(52.2681°N, 113.8112°W)
Time: 15:52:49
(UTC-06:00)

Envisat - Pass Details

Date: 24 April 2024
Orbit: 762 x 764 km, 98.3° (Epoch: 27 May)

Event Time Altitude Azimuth Distance (km) Brightness Sun altitude
Rises 05:24:38 0° 13° (NNE) 3,241 7.0 -7.9°
Reaches altitude 10° 05:26:57 10° 12° (NNE) 2,310 6.2 -7.6°
Maximum altitude 05:32:02 74° 288° (WNW) 798 3.0 -7.0°
Drops below altitude 10° 05:37:04 10° 204° (SSW) 2,293 5.0 -6.3°
Enters shadow 05:39:12 - 203° (SSW) 3,151 5.7 -6.0°
